TimePDT,TemperatureF,Dew PointF,Humidity,Sea Level PressureIn,VisibilityMPH,Wind Direction,Wind SpeedMPH,Gust SpeedMPH,PrecipitationIn,Events,Conditions,WindDirDegrees,DateUTC
12:54 AM,51.1,39.0,63,30.02,10.0,ENE,6.9,-,N/A,,Clear,60,2013-10-30 07:54:00
1:54 AM,50.0,39.0,66,30.03,10.0,ENE,4.6,-,N/A,,Partly Cloudy,70,2013-10-30 08:54:00
2:54 AM,48.9,39.0,69,30.04,10.0,Calm,Calm,-,N/A,,Clear,0,2013-10-30 09:54:00
3:54 AM,46.9,37.0,68,30.05,10.0,Calm,Calm,-,N/A,,Clear,0,2013-10-30 10:54:00
4:54 AM,46.9,37.0,68,30.06,10.0,Calm,Calm,-,N/A,,Clear,0,2013-10-30 11:54:00
5:54 AM,48.0,37.9,68,30.08,10.0,Calm,Calm,-,N/A,,Partly Cloudy,0,2013-10-30 12:54:00
6:54 AM,45.0,37.9,76,30.09,10.0,Calm,Calm,-,N/A,,Clear,0,2013-10-30 13:54:00
7:54 AM,46.9,37.9,71,30.11,10.0,Calm,Calm,-,N/A,,Clear,0,2013-10-30 14:54:00
8:54 AM,52.0,39.9,63,30.13,10.0,SE,6.9,-,N/A,,Clear,140,2013-10-30 15:54:00
9:54 AM,55.0,42.1,62,30.13,10.0,SSE,5.8,-,N/A,,Clear,160,2013-10-30 16:54:00
10:54 AM,57.9,42.1,56,30.13,10.0,SSE,3.5,-,N/A,,Clear,160,2013-10-30 17:54:00
11:54 AM,60.1,42.1,51,30.12,10.0,Calm,Calm,-,N/A,,Clear,0,2013-10-30 18:54:00
12:54 PM,63.0,41.0,45,30.10,10.0,Calm,Calm,-,N/A,,Clear,0,2013-10-30 19:54:00
1:54 PM,66.0,39.9,38,30.07,10.0,Variable,5.8,-,N/A,,Clear,0,2013-10-30 20:54:00
2:54 PM,66.0,39.9,38,30.05,10.0,Calm,Calm,-,N/A,,Clear,0,2013-10-30 21:54:00
3:54 PM,66.9,39.9,37,30.05,10.0,NW,5.8,-,N/A,,Clear,320,2013-10-30 22:54:00
4:54 PM,66.9,39.9,37,30.04,10.0,NW,8.1,-,N/A,,Clear,320,2013-10-30 23:54:00
5:54 PM,64.0,39.9,41,30.04,10.0,NW,8.1,-,N/A,,Clear,320,2013-10-31 00:54:00
6:54 PM,60.1,39.9,47,30.06,10.0,North,6.9,-,N/A,,Clear,350,2013-10-31 01:54:00
7:54 PM,57.9,39.0,49,30.08,10.0,NNE,6.9,-,N/A,,Clear,20,2013-10-31 02:54:00
8:54 PM,57.9,39.0,49,30.09,10.0,East,5.8,-,N/A,,Clear,80,2013-10-31 03:54:00
9:54 PM,57.0,39.9,53,30.10,10.0,ENE,6.9,-,N/A,,Clear,70,2013-10-31 04:54:00
10:54 PM,54.0,39.9,59,30.11,10.0,East,3.5,-,N/A,,Clear,80,2013-10-31 05:54:00
11:54 PM,53.1,39.0,59,30.12,10.0,Calm,Calm,-,N/A,,Clear,0,2013-10-31 06:54:00